User: anonymous   Login
Location: Unspecified
(0.0000°N, 0.0000°E)
Time: 13:45:35
(UTC+01:00)
Language:

Delta 2 Rocket - Orbit

View from above orbital plane
View from above orbital plane
View from above satellite
View from above satellite

Ground track
Ground track

The orbit data is extracted from the following two-line orbital elements,

1 20453U 90008B   14354.91451956  .00019062  00000-0  11720-2 0  1597
2 20453 035.6261 152.6839 0313860 193.8275 165.3678 14.76479244313358
Epoch (UTC): 20 December 2014 21:56:54
Eccentricity: 0.0313860
inclination: 35.6261°
perigee height: 420 km
apogee height: 861 km
right ascension of ascending node: 152.6839°
argument of perigee: 193.8275°
revolutions per day: 14.76479244
mean anomaly at epoch: 165.3678°
orbit number at epoch: 31335

The dashed part of the orbit path shows where the satellite is in the earth's shadow,  

DLR